Theta_e
308 308 308 308 308 305 299 289 282 298 303 289 286 283 286 291 289 292 289 289 287 286 287 286 284 286 291 297 295 290 293 288 286 290 294 298 295 292 292 287 285 287 287 290
308 308 308 308 307 305 297 288 285 296 300 283 282 286 287 289 288 288 288 288 289 290 287 284 287 289 295 296 293 290 292 287 282 285 290 293 291 293 293 291 289 287 286 290
308 307 308 308 307 306 293 290 281 288 291 290 286 284 284 285 291 288 289 287 289 288 287 289 287 287 291 294 293 300 293 288 287 284 287 292 290 292 293 292 288 289 290 291
308 308 308 308 307 306 293 286 282 289 282 282 284 283 285 283 284 288 288 285 287 286 283 286 287 290 291 293 296 293 288 283 290 293 293 294 294 293 293 292 293 290 293 293
307 308 308 308 307 303 291 285 288 291 287 288 284 283 283 285 287 288 285 285 288 288 285 287 285 289 290 288 291 289 288 282 289 291 293 293 291 294 295 295 295 295 295 294
306 307 308 308 307 302 291 296 295 290 287 286 279 280 285 285 288 291 291 289 287 286 289 292 293 294 294 293 289 288 285 285 284 285 293 291 287 292 294 295 298 297 292 296
305 306 307 308 308 305 300 296 295 289 283 285 283 286 287 286 288 286 290 291 285 289 295 295 295 293 294 293 292 292 286 284 285 282 288 281 292 298 298 296 299 299 297 299
304 305 306 308 308 307 300 294 296 290 284 286 286 287 287 287 288 286 288 290 291 291 291 287 285 286 287 290 292 293 292 286 282 281 283 289 295 298 295 294 295 300 300 300
304 305 305 307 308 308 298 295 299 295 287 285 290 287 288 287 286 285 288 291 293 290 287 285 280 280 285 285 288 294 294 290 285 285 280 281 292 298 303 302 292 302 305 300
305 305 306 307 307 308 300 300 297 297 288 291 292 289 287 292 290 286 285 287 288 291 283 276 280 281 288 281 282 285 287 285 282 283 282 291 296 299 301 291 290 297 304 305
305 306 306 307 307 308 303 298 297 298 292 293 294 295 291 292 291 286 285 286 287 286 281 283 286 285 287 285 287 286 285 286 288 287 284 285 297 297 291 293 297 298 299 304
305 306 306 307 308 308 306 297 297 301 295 293 297 297 298 297 295 292 290 290 291 288 287 288 289 287 288 287 283 289 285 287 287 290 291 297 297 295 298 298 297 298 298 301
305 306 307 308 308 308 306 299 299 298 295 292 288 290 296 300 299 299 287 289 294 290 295 289 290 285 288 282 285 286 289 293 290 290 296 296 297 297 298 300 298 300 301 302
305 306 306 307 307 307 305 299 298 298 295 288 287 296 294 301 299 298 297 293 293 294 292 292 291 286 292 287 289 287 291 292 289 290 295 296 298 296 298 299 300 301 302 302
306 306 307 306 305 307 301 297 297 297 292 284 286 293 297 297 297 297 297 293 291 292 291 287 286 290 292 292 292 288 293 289 287 287 294 294 295 298 299 299 299 301 301 302
306 307 307 307 306 305 295 289 296 297 297 291 282 291 294 297 299 298 297 294 295 294 291 290 289 291 291 286 284 293 295 297 297 294 298 297 299 301 302 299 300 302 302 304
305 306 306 307 306 295 292 291 295 299 297 289 287 285 294 297 299 298 296 296 291 290 290 287 287 289 290 288 284 292 296 298 298 300 299 296 299 298 301 301 302 304 303 305
305 305 307 307 306 301 295 298 302 300 293 293 286 285 289 297 293 293 293 290 288 288 288 288 286 288 287 283 291 293 295 296 298 298 300 299 300 300 301 301 302 303 302 304
304 307 306 300 295 292 295 307 302 296 293 284 286 286 284 296 295 294 293 291 286 288 285 288 288 283 283 290 291 292 292 293 296 298 301 298 297 298 299 300 300 302 303 304
305 299 295 289 296 307 304 296 292 291 292 291 288 292 286 292 293 292 290 290 287 284 285 290 286 287 293 295 294 294 294 295 297 296 297 299 299 298 298 299 300 302 305 307
294 291 290 296 302 296 289 285 284 286 285 292 292 292 290 297 290 288 290 285 286 279 285 287 286 286 292 296 295 296 296 295 296 298 298 300 302 300 298 298 300 301 306 307
294 297 300 298 292 287 285 280 285 284 282 290 289 290 290 294 294 287 287 283 283 279 290 285 284 290 295 295 297 298 298 298 297 298 298 299 302 303 298 298 299 301 305 306
302 298 293 286 285 279 281 280 281 283 288 290 289 287 289 290 290 288 286 277 279 288 283 284 287 292 295 297 297 298 299 299 299 299 300 300 301 302 305 301 300 302 302 306
291 287 279 280 280 280 286 284 285 289 289 290 288 287 284 287 284 288 283 282 284 274 274 282 289 292 295 297 298 299 299 300 299 299 300 300 300 301 304 305 305 302 301 305
292 286 279 281 287 288 289 290 289 290 290 288 286 287 287 281 282 287 280 280 273 276 281 287 292 294 294 295 297 299 299 300 300 301 300 300 300 301 302 303 304 306 306 302
294 288 285 288 287 287 287 288 288 290 289 289 288 282 282 280 284 280 281 280 274 281 285 291 293 292 293 295 298 300 300 301 301 302 302 302 302 301 301 302 303 306 306 309
290 287 291 289 287 287 289 288 289 290 288 283 285 281 281 283 277 277 284 283 283 289 291 293 293 292 293 296 298 299 300 301 301 302 302 302 304 304 302 300 302 305 307 306
Wind_Speed
21 22 22 22 19 18 6 2 4 3 2 1 1 1 3 5 10 9 8 7 12 12 6 4 7 10 13 11 16 8 7 5 10 12 4 18 24 19 20 9 9 2 5 13
20 21 21 21 18 10 3 4 3 3 2 2 1 4 6 7 12 9 3 5 6 10 9 6 4 8 15 13 16 14 9 6 1 4 5 4 15 23 15 6 4 6 7 8
20 20 20 20 18 11 3 3 4 4 3 2 1 4 5 4 7 10 5 7 7 9 9 8 7 13 10 16 16 16 5 5 12 18 4 5 5 17 17 14 10 10 11 5
20 20 20 20 19 10 3 3 3 2 4 3 7 3 5 7 7 3 5 4 4 8 7 8 8 10 13 6 12 9 3 5 8 17 21 11 4 11 20 21 20 16 15 10
21 20 18 19 14 7 4 2 2 2 6 6 5 5 3 7 10 6 6 2 7 9 7 7 12 10 5 3 9 9 6 6 10 10 15 23 23 8 16 20 14 11 8 9
20 20 18 16 14 4 1 2 2 1 5 6 3 4 4 10 13 8 10 8 9 12 12 6 10 8 8 8 6 8 3 4 11 8 13 9 17 28 15 9 13 15 10 10
20 19 20 16 13 2 1 2 2 2 4 3 4 10 15 14 10 10 16 11 5 5 10 12 8 8 12 12 14 10 7 4 4 7 2 10 13 9 18 14 8 12 4 10
20 18 19 18 13 7 2 2 1 1 4 6 11 7 9 11 10 6 11 12 6 5 4 4 5 3 4 6 11 9 13 6 3 3 5 5 6 6 4 11 10 8 11 8
22 19 19 18 14 10 2 3 3 2 3 4 9 8 9 8 5 6 5 7 6 1 3 3 4 3 2 3 7 9 12 15 6 2 4 8 4 18 16 11 8 12 14 9
23 21 20 18 16 12 1 3 4 2 4 5 4 5 3 5 4 4 6 6 6 3 1 1 3 3 0 2 5 8 7 3 8 3 5 3 18 21 19 10 5 18 17 15
24 21 20 17 16 12 2 3 5 3 4 12 8 4 6 7 4 3 5 5 4 4 6 2 1 1 2 2 3 0 3 6 3 4 5 3 22 8 10 7 10 14 18 14
23 21 20 18 14 12 2 3 1 2 4 9 10 16 20 15 18 2 2 2 2 2 2 3 3 2 1 1 4 3 4 3 4 4 3 1 7 4 5 5 8 13 17 20
22 21 20 17 14 10 5 2 1 2 4 6 3 6 5 3 12 11 3 3 3 2 4 2 2 2 1 3 2 1 3 4 2 8 4 11 10 4 7 12 11 15 15 17
22 20 17 14 12 10 5 2 2 1 3 4 9 3 8 5 6 11 11 3 2 1 1 2 2 2 3 3 3 3 3 3 4 5 9 13 1 17 16 18 16 16 18 16
23 21 18 14 11 9 3 3 4 4 3 4 7 12 6 6 6 9 7 3 1 2 3 2 3 2 2 1 1 1 2 1 1 1 14 8 10 13 19 15 16 17 18 20
23 23 19 14 9 2 1 4 1 5 4 2 5 5 6 5 2 4 7 5 4 3 3 3 3 3 2 2 2 7 11 10 11 6 9 11 16 16 13 11 14 15 17 17
25 22 18 12 8 3 3 5 4 6 2 1 5 5 5 4 3 2 2 0 3 3 3 3 3 2 2 3 1 10 3 10 12 11 10 10 11 8 14 12 13 10 12 13
27 24 16 5 5 1 4 3 6 6 2 1 3 6 5 7 4 3 3 3 1 1 2 2 2 4 2 3 8 10 13 16 6 11 12 10 17 12 11 10 9 10 13 15
26 16 5 3 3 1 4 1 7 2 4 1 2 4 4 6 3 2 4 3 3 2 1 2 2 4 4 8 13 14 11 10 12 14 16 9 16 12 10 10 11 5 10 11
16 4 4 4 3 9 4 4 3 3 1 1 3 1 4 3 2 2 3 3 2 2 2 3 2 3 2 5 10 9 10 10 10 11 11 9 12 12 9 7 8 6 5 7
5 5 2 4 12 2 3 2 3 2 3 3 5 6 5 1 2 2 2 3 3 3 3 4 2 1 3 9 12 12 9 8 10 10 11 13 16 15 10 5 7 8 6 4
5 5 6 3 4 4 3 2 4 1 4 4 3 4 1 2 2 2 2 2 2 3 5 3 3 4 12 13 15 13 12 12 9 9 11 13 13 13 12 8 7 8 6 5
1 2 3 3 2 6 3 3 5 3 3 5 4 4 1 1 3 2 2 4 3 5 3 4 2 10 13 12 12 13 12 12 11 12 11 12 14 14 12 8 7 7 7 6
2 2 5 3 3 3 5 5 5 6 5 6 3 1 2 1 4 2 4 3 2 6 6 3 5 12 12 11 12 11 13 15 15 13 12 14 13 13 13 12 9 8 7 6
3 3 4 5 5 4 5 5 3 5 4 2 2 2 2 3 3 2 3 6 5 1 3 4 8 14 15 14 10 9 8 11 10 10 10 10 11 12 12 12 9 7 7 6
3 4 1 3 1 5 3 3 5 3 3 1 3 1 3 3 2 3 0 3 3 5 4 7 10 12 12 13 13 12 11 10 12 10 9 11 11 11 12 11 11 9 6 5
4 4 3 4 2 5 5 4 5 1 2 1 2 3 4 1 3 1 2 3 5 4 9 7 10 9 11 11 10 10 10 11 9 10 12 11 10 8 9 12 11 9 9 8
Wind_Direction
345 344 343 345 344 340 40 20 350 290 28 16 354 273 241 301 291 301 280 236 264 279 286 284 291 291 337 32 2 7 279 206 243 216 281 186 200 204 211 196 212 208 161 257
344 344 344 345 347 5 326 345 277 305 109 282 274 274 263 252 285 286 264 297 297 279 299 300 248 284 315 333 359 346 327 279 214 280 274 187 203 203 199 204 93 210 153 259
343 344 344 342 340 346 79 10 342 322 33 142 301 311 274 270 273 294 257 285 276 291 301 252 259 278 294 316 336 328 323 268 235 220 194 171 166 197 196 191 208 216 231 261
338 342 344 342 338 348 90 24 287 329 311 335 303 260 275 309 325 276 277 290 236 276 300 318 261 280 291 303 326 360 25 268 273 259 238 273 212 175 199 204 208 195 230 203
338 337 341 346 357 18 70 43 327 340 282 307 304 301 298 295 316 291 288 223 309 328 280 248 287 313 334 7 301 330 356 286 328 258 234 230 252 257 204 205 208 218 175 218
337 334 338 342 350 40 61 272 266 195 296 304 301 250 333 305 303 276 248 275 310 290 276 310 285 228 211 206 223 278 258 333 352 276 223 221 249 238 238 221 200 187 179 214
336 332 331 336 341 168 214 268 238 261 270 277 272 295 297 294 308 283 288 293 252 255 342 301 268 226 227 228 241 234 239 256 218 277 211 198 247 200 218 220 217 216 179 174
332 330 324 328 329 344 192 245 262 254 271 257 297 301 290 296 298 270 281 283 244 310 285 273 284 220 229 231 234 279 221 198 246 244 212 301 200 23 164 167 253 210 228 196
329 328 323 324 327 324 139 224 205 236 284 239 276 294 287 292 293 307 267 295 298 216 222 197 223 264 277 89 348 320 323 175 186 321 230 193 30 324 323 304 196 356 351 296
321 326 322 322 319 324 229 260 193 235 240 257 269 283 299 287 287 276 291 325 327 345 348 115 231 191 142 84 22 347 344 142 229 300 284 331 346 322 301 134 273 323 326 317
325 323 318 317 314 319 343 255 194 222 249 283 256 208 223 273 252 271 290 340 359 335 14 306 322 197 94 110 152 49 306 311 164 177 262 278 344 14 55 305 311 316 319 312
324 322 319 317 312 299 317 255 170 186 251 263 271 260 259 244 240 275 264 248 266 231 330 305 301 348 142 170 85 95 250 313 327 322 45 31 329 99 268 280 310 325 312 309
323 318 317 317 316 299 210 235 280 253 267 291 355 262 276 196 217 195 181 273 222 205 204 227 284 32 318 47 105 299 250 312 313 316 90 309 290 271 337 349 323 320 317 310
324 320 320 321 318 319 262 210 176 216 269 292 280 311 291 261 174 193 213 186 34 30 20 261 265 203 167 195 137 218 244 280 342 302 304 330 53 336 337 329 327 323 333 331
327 328 323 316 313 305 266 202 213 208 148 257 285 311 266 281 180 208 208 215 217 17 297 285 267 283 139 146 150 209 221 272 352 281 290 287 276 298 312 311 319 326 337 332
330 328 322 303 293 327 81 360 274 184 180 291 308 281 306 312 292 247 244 214 197 196 223 241 265 262 77 59 243 186 189 192 217 233 248 288 279 287 298 306 307 329 333 331
329 325 312 279 251 120 158 193 203 142 146 325 299 301 276 298 234 112 264 10 201 162 227 253 238 252 160 187 66 359 253 210 238 236 263 301 291 292 305 304 297 320 322 338
327 325 315 231 184 311 315 277 245 162 161 240 288 277 334 7 332 338 344 344 35 293 283 323 290 334 31 60 345 333 345 339 314 322 279 249 271 286 283 295 294 341 343 340
325 325 129 103 61 53 256 111 108 72 127 203 293 285 308 339 266 23 351 352 341 282 352 320 7 341 23 349 339 332 338 329 311 308 307 276 279 271 285 297 308 337 326 337
327 30 39 334 242 326 87 13 12 14 317 100 255 226 270 285 315 31 346 4 358 317 239 266 199 138 323 330 321 306 300 292 317 325 291 323 306 265 261 286 289 277 274 303
18 10 315 285 308 57 34 326 60 322 333 231 234 217 268 48 350 348 32 330 325 323 339 326 328 170 303 317 315 314 310 282 279 272 277 289 292 266 273 289 281 284 261 275
280 297 288 299 5 26 49 300 323 33 249 279 244 303 175 60 41 48 357 337 338 277 334 302 323 329 330 323 324 327 305 308 302 298 300 301 309 324 270 256 249 273 261 283
212 193 272 50 313 30 67 338 304 300 271 259 318 322 355 342 48 80 333 13 317 295 340 331 267 326 317 325 318 307 313 305 301 312 320 318 316 317 316 286 285 258 251 252
211 154 318 140 290 234 191 202 223 246 239 283 299 283 82 11 41 357 341 289 359 8 7 315 301 299 295 320 313 318 321 315 319 323 324 315 299 295 305 309 326 283 254 250
225 116 231 220 233 252 233 226 277 249 253 298 0 39 93 10 77 32 1 356 346 192 271 264 292 309 313 312 314 317 307 322 316 308 297 288 285 279 279 291 298 307 288 226
205 222 205 218 64 282 292 236 256 243 280 100 51 54 47 16 86 44 122 346 256 274 252 288 305 310 311 315 319 329 329 320 328 322 302 289 267 266 266 279 273 270 266 280
215 250 209 180 198 217 246 202 248 181 60 280 69 30 208 98 46 311 206 228 239 251 290 297 295 285 297 308 313 319 319 326 321 322 329 322 317 298 273 268 274 270 255 223